TimeEST,TemperatureF,Dew PointF,Humidity,Sea Level PressureIn,VisibilityMPH,Wind Direction,Wind SpeedMPH,Gust SpeedMPH,PrecipitationIn,Events,Conditions,WindDirDegrees,DateUTC
12:53 AM,-9999,-9999,N/A,30.15,10.0,NE,12.7,20.7,N/A,,Clear,40,2012-11-29 05:53:00
1:53 AM,-9999,-9999,N/A,30.14,10.0,NNE,12.7,-,N/A,,Overcast,30,2012-11-29 06:53:00
2:53 AM,-9999,-9999,N/A,30.13,10.0,NNE,12.7,-,N/A,,Overcast,30,2012-11-29 07:53:00
3:53 AM,-9999,-9999,N/A,30.14,10.0,NNE,10.4,-,N/A,,Clear,30,2012-11-29 08:53:00
4:53 AM,-9999,-9999,N/A,30.13,10.0,NNE,11.5,-,N/A,,Clear,30,2012-11-29 09:53:00
5:53 AM,-9999,-9999,N/A,30.13,10.0,NNE,15.0,-,N/A,,Mostly Cloudy,30,2012-11-29 10:53:00
6:53 AM,69.8,64.0,82,30.15,10.0,NNE,11.5,19.6,N/A,,Mostly Cloudy,20,2012-11-29 11:53:00
7:53 AM,69.8,63.0,79,30.17,10.0,NNE,10.4,18.4,N/A,,Mostly Cloudy,30,2012-11-29 12:53:00
8:53 AM,69.8,64.0,82,30.18,10.0,NNE,11.5,18.4,N/A,,Mostly Cloudy,20,2012-11-29 13:53:00
9:53 AM,69.8,63.0,79,30.19,10.0,NNE,11.5,-,N/A,,Mostly Cloudy,20,2012-11-29 14:53:00
10:53 AM,71.6,64.0,77,30.19,10.0,NNE,10.4,-,N/A,,Mostly Cloudy,30,2012-11-29 15:53:00
11:53 AM,73.4,64.0,72,30.18,10.0,NE,13.8,19.6,N/A,,Mostly Cloudy,40,2012-11-29 16:53:00
12:53 PM,73.4,64.9,75,30.15,10.0,NNE,11.5,-,N/A,,Mostly Cloudy,30,2012-11-29 17:53:00
1:53 PM,75.2,64.9,70,30.12,10.0,NE,9.2,25.3,N/A,,Scattered Clouds,50,2012-11-29 18:53:00
2:53 PM,75.2,64.0,68,30.12,10.0,ENE,16.1,26.5,N/A,,Scattered Clouds,60,2012-11-29 19:53:00
3:53 PM,75.2,64.9,70,30.11,10.0,ENE,11.5,21.9,N/A,,Scattered Clouds,60,2012-11-29 20:53:00
4:53 PM,75.2,64.0,68,30.11,10.0,ENE,13.8,25.3,N/A,,Scattered Clouds,60,2012-11-29 21:53:00
5:53 PM,71.6,64.9,79,30.13,10.0,ENE,12.7,21.9,N/A,,Scattered Clouds,60,2012-11-29 22:53:00
6:53 PM,71.6,64.9,79,30.14,10.0,ENE,12.7,-,N/A,,Scattered Clouds,60,2012-11-29 23:53:00
7:53 PM,71.6,64.9,79,30.14,10.0,ENE,11.5,17.3,N/A,,Scattered Clouds,60,2012-11-30 00:53:00
8:53 PM,71.6,64.9,79,30.16,10.0,NE,9.2,-,N/A,,Clear,50,2012-11-30 01:53:00
9:53 PM,71.6,64.0,77,30.16,10.0,NE,11.5,20.7,N/A,,Clear,50,2012-11-30 02:53:00
10:53 PM,-9999,-9999,N/A,30.16,10.0,NE,16.1,23.0,N/A,,Clear,40,2012-11-30 03:53:00
11:53 PM,-9999,-9999,N/A,30.15,10.0,NE,12.7,-,N/A,,Partly Cloudy,40,2012-11-30 04:53:00